Погода в Мендосе

Аргентина     32°54′22″S   68°49′11″W
темп.,
°C
ветер,
м/с
пор.,
м/с
влажн.,
%
обл.,
%
осадки,
мм/ч
давл.,
гПа
погр.,
м
11 мая, вт
вт1100:00+13вюв454865 0.0 1024294
03:00+10ююв225049 0.0 102268
06:00+8ююв225610 0.0 102241
09:00+9ююз11544 0.0 102336
12:00+14всв22400 0.0 1023677
15:00+17ссв44370 0.0 10191215
18:00+16ссв45380 0.0 10181158
21:00+13ссв35480 0.0 1019111
12 мая, ср
ср1200:00+12ссв33520 0.0 101948
03:00+10ссв226724 0.0 101717
06:00+8в11765 0.0 101715
09:00+9вюв11725 0.0 101826
12:00+14св23490 0.0 1017592
15:00+18ссв44370 0.0 1014859
18:00+18с23362 0.0 1013246
21:00+14зюз114615 0.0 101511
13 мая, чт
чт1300:00+11в116355 0.0 101527
03:00+10ююв226853 0.0 101533
06:00+9ююв237529 0.0 101535
09:00+9ююв22725 0.0 101740
12:00+15в21494 0.0 1017465
15:00+19в11350 0.0 1014767
18:00+19вюв22350 0.0 1014167
21:00+14ююв11470 0.0 101611
14 мая, пт
пт1400:00+12вюв22560 0.0 101719
03:00+10юв117051 0.0 101616
06:00+10вюв12744 0.0 101618
09:00+10ююв11730 0.0 101719
12:00+16всв21475 0.0 1016412
15:00+19св32367 0.0 1013795
18:00+19св22370 0.0 1013171
21:00+14св11485 0.0 101511
15 мая, сб
сб1500:00+13в22525 0.0 101612
03:00+11юв116213 0.0 101711
06:00+10ююз116731 0.0 101711
09:00+11вюв00634 0.0 101811
12:00+17св21430 0.0 1019556
15:00+20ссв32360 0.0 10161033
18:00+19св22380 0.0 1016245
21:00+15всв124816 0.0 101712